Starlink 35574

operational
NORAD ID: 66110 Int'l Des: 2025-236 Owner: SPXS Country: US Constellation: starlink
NOTLE

About Starlink 35574

Description loading...

Live Position

Loading 3D Globe...

Upcoming Passes

Altitude History

Altitude vs Time

uPlot chart will show altitude changes over time

Two-Line Element Set

1 66110C 25236AB 25293.06506944 .00531910 00000+0 80880-3 0 2939
2 66110 53.1607 48.3452 0008669 259.3499 260.9857 16.03146006 19
Epoch: Oct 20, 2025 • Age: 14 hours

Current Status

Altitude 264.3 km
Velocity 7.75 km/s
Sub-Earth Point -0.38°S, 7.43°W
Launch Date Oct 19, 2025
Age 1 days
Type internet

Technical Details

Classification Payload
Mass 575.00 kg
Dry Mass 530.00 kg
Total Mass 575.00 kg
Length 0.30 m
Diameter 4.10 m
Span 29.00 m
Shape Box + pan
Manufacturer SPXS
Bus Type Starlink V2MO
Phase Status In Orbit
Owner/State SPXS/US

Large Constellations

Loading constellations...